FW7644 Weather Reports


time (UTC)temp
C
wind
direction
speed
KPH
gust
KPH
rain 1hr
cm
rain 24hr
cm
rain mn
cm
humidity
%
barometer
mb
20260503032843 12 0.0 0.0 0.00 0.48 0.00 99 1022.6
20260503032342 13 0.0 0.0 0.00 0.48 0.00 99 1022.5
20260503031840 13 0.0 0.0 0.00 0.48 0.00 99 1022.6
20260503031338 13 0.0 0.0 0.00 0.48 0.00 99 1022.6
20260503030837 13 0.0 0.0 0.00 0.48 0.00 99 1022.5
20260503030335 13 0.0 0.0 0.00 0.48 0.00 99 1022.6
20260503025833 13 0.0 0.0 0.00 0.48 0.48 99 1022.6
20260503025332 13 0.0 0.0 0.00 0.48 0.48 99 1022.5
20260503024830 13 0.0 0.0 0.00 0.48 0.48 99 1022.7
20260503024329 13 0.0 0.0 0.00 0.48 0.48 99 1022.6
20260503023828 13 0.0 0.0 0.00 0.48 0.48 99 1022.5
20260503023326 13 0.0 0.0 0.00 0.48 0.48 99 1022.7
20260503022825 13 0.0 0.0 0.00 0.48 0.48 99 1022.5
20260503022323 13 0.0 0.0 0.00 0.48 0.48 99 1022.7
20260503021821 13 0.0 0.0 0.00 0.48 0.48 99 1022.6
20260503021319 13 0.0 0.0 0.00 0.48 0.48 99 1022.6
20260503020817 13 0.0 0.0 0.00 0.48 0.48 99 1022.6
20260503020315 13 0.0 0.0 0.00 0.48 0.48 99 1022.6
20260503015813 13 0.0 0.0 0.00 0.48 0.48 98 1022.5
20260503015312 13 0.0 0.0 0.00 0.48 0.48 98 1022.6
20260503014810 13 0.0 0.0 0.00 0.48 0.48 98 1022.6
20260503014308 13 0.0 0.0 0.00 0.48 0.48 98 1022.6
20260503013806 13 0.0 0.0 0.00 0.48 0.48 98 1022.6
20260503013304 13 0.0 0.0 0.00 0.48 0.48 98 1022.7
20260503012802 13 0.0 0.0 0.00 0.48 0.48 98 1022.7
20260503012300 13 0.0 0.0 0.00 0.48 0.48 98 1022.7
20260503011757 13 0.0 0.0 0.00 0.48 0.48 98 1022.7
20260503011255 13 0.0 0.0 0.00 0.48 0.48 98 1022.7
20260503010754 13 0.0 0.0 0.00 0.48 0.48 98 1022.5
20260503010252 13 0.0 0.0 0.00 0.48 0.48 98 1022.4
20260503005751 13 0.0 0.0 0.00 0.48 0.48 98 1022.4
20260503005249 13 0.0 0.0 0.00 0.48 0.48 98 1022.6
20260503004747 13 0.0 0.0 0.00 0.48 0.48 98 1022.7
20260503004245 14 0.0 0.0 0.00 0.48 0.48 98 1022.7
20260503003743 14 0.0 0.0 0.00 0.48 0.48 98 1022.6
20260503003241 14 0.0 0.0 0.00 0.48 0.48 97 1022.6
20260503002739 14 0.0 0.0 0.00 0.48 0.48 97 1022.3
20260503002237 14 0.0 0.0 0.00 0.48 0.48 97 1022.2
20260503001735 14 0.0 0.0 0.00 0.48 0.48 97 1022.5
20260503001233 14 0.0 0.0 0.00 0.48 0.48 97 1022.4
20260503000732 14 0.0 0.0 0.00 0.48 0.48 97 1022.5
20260503000230 14 0.0 0.0 0.00 0.48 0.48 97 1022.1
20260502235728 14 0.0 0.0 0.00 0.48 0.48 97 1022.0
20260502235226 15 0.0 0.0 0.00 0.48 0.48 97 1022.1
20260502234725 14 0.0 0.0 0.00 0.48 0.48 97 1021.7
20260502234223 14 0.0 0.0 0.00 0.48 0.48 96 1021.2
20260502233721 15 0.0 0.0 0.00 0.48 0.48 96 1021.1
20260502233219 15 0.0 0.0 0.00 0.48 0.48 96 1021.8
20260502232718 15 0.0 0.0 0.00 0.48 0.48 96 1022.1
20260502232216 15 0.0 0.0 0.00 0.48 0.48 96 1022.3
20260502231714 15 0.0 0.0 0.00 0.48 0.48 96 1022.4
20260502231213 15 0.0 0.0 0.00 0.48 0.48 96 1021.5
20260502230711 15 0.0 0.0 0.00 0.48 0.48 96 1020.6
20260502230210 15 0.0 0.0 0.00 0.48 0.48 96 1019.6
20260502225708 15 0.0 0.0 0.00 0.48 0.48 96 1019.4
20260502225206 15 0.0 0.0 0.00 0.48 0.48 96 1020.6
20260502224704 15 0.0 0.0 0.03 0.48 0.48 96 1021.6
20260502224202 15 0.0 0.0 0.03 0.48 0.48 96 1020.8
20260502223700 15 0.0 0.0 0.05 0.48 0.48 96 1020.4
20260502223159 15 0.0 0.0 0.05 0.48 0.48 96 1020.5
20260502222657 15 0.0 0.0 0.05 0.48 0.48 96 1020.4
20260502222156 15 0.0 0.0 0.05 0.48 0.48 96 1020.0
20260502221654 15 0.0 0.0 0.08 0.48 0.48 96 1020.0
20260502221153 15 0.0 0.0 0.08 0.48 0.48 96 1020.3
20260502220651 15 0.0 0.0 0.08 0.48 0.48 96 1020.2
20260502220150 15 0.0 0.0 0.08 0.48 0.48 95 1020.4
20260502215648 15 0.0 0.0 0.10 0.48 0.48 95 1020.8
20260502215146 15 0.0 0.0 0.10 0.48 0.48 95 1020.8
20260502214645 15 0.0 0.0 0.10 0.46 0.46 95 1021.1
20260502214143 15 0.0 0.0 0.10 0.46 0.46 94 1021.5
20260502213641 15 0.0 0.0 0.10 0.46 0.46 94 1021.6
20260502213140 15 0.0 0.0 0.08 0.43 0.43 93 1021.7
20260502212638 15 0.0 0.0 0.08 0.43 0.43 93 1021.7
20260502212136 15 0.0 0.0 0.08 0.43 0.43 92 1021.9
20260502211634 15 0.0 0.0 0.08 0.43 0.43 91 1022.0
20260502211133 15 0.0 0.0 0.08 0.43 0.43 90 1021.8
20260502210631 15 0.0 0.0 0.05 0.41 0.41 89 1022.1
20260502210129 15 0.0 0.0 0.05 0.41 0.41 88 1022.4
20260502205628 16 0.0 0.0 0.03 0.38 0.38 87 1022.5
20260502205126 16 0.0 0.0 0.03 0.38 0.38 85 1022.7
20260502204624 16 0.0 0.0 0.00 0.36 0.36 84 1022.3
20260502204123 16 0.0 0.0 0.00 0.36 0.36 83 1022.4
20260502203621 16 0.0 0.0 0.00 0.36 0.36 84 1022.3
20260502203119 16 0.0 0.0 0.00 0.36 0.36 84 1022.2
20260502202617 16 0.0 0.0 0.00 0.36 0.36 85 1022.2
20260502202116 16 0.0 0.0 0.00 0.36 0.36 85 1022.0
20260502201614 16 0.0 0.0 0.00 0.36 0.36 85 1021.7
20260502201112 16 0.0 0.0 0.00 0.36 0.36 84 1021.7
20260502200611 16 0.0 0.0 0.00 0.36 0.36 84 1021.6
20260502200109 16 0.0 0.0 0.00 0.36 0.36 84 1021.6
20260502195607 17 0.0 0.0 0.00 0.36 0.36 84 1021.4
20260502195105 17 0.0 0.0 0.00 0.36 0.36 84 1021.5
20260502194603 17 0.0 0.0 0.00 0.36 0.36 84 1021.2
20260502194102 17 0.0 0.0 0.00 0.36 0.36 84 1021.1
20260502193600 17 0.0 0.0 0.00 0.36 0.36 84 1020.7
20260502193058 17 0.0 0.0 0.00 0.36 0.36 82 1020.7
20260502192556 17 0.0 0.0 0.00 0.36 0.36 82 1020.4
20260502192055 17 0.0 0.0 0.00 0.36 0.36 82 1020.4
20260502191553 17 0.0 0.0 0.00 0.36 0.36 81 1020.5
20260502191052 17 0.0 0.0 0.00 0.36 0.36 81 1020.3
20260502190550 18 0.0 0.0 0.00 0.36 0.36 81 1020.4
20260502190049 17 0.0 0.0 0.00 0.36 0.36 81 1020.6
20260502185547 17 0.0 0.0 0.00 0.36 0.36 80 1020.4
20260502185045 17 0.0 0.0 0.00 0.36 0.36 79 1020.5
20260502184543 17 0.0 0.0 0.00 0.36 0.36 79 1020.3
20260502184042 17 0.0 0.0 0.00 0.36 0.36 78 1020.5
20260502183540 17 0.0 0.0 0.00 0.36 0.36 78 1020.5
20260502183038 17 0.0 0.0 0.00 0.36 0.36 77 1020.7
20260502182536 18 0.0 0.0 0.00 0.36 0.36 75 1020.3
20260502182034 18 0.0 0.0 0.00 0.36 0.36 74 1020.3
20260502181532 18 0.0 0.0 0.00 0.36 0.36 75 1020.2
20260502181030 18 0.0 0.0 0.00 0.36 0.36 75 1020.2
20260502180528 18 0.0 0.0 0.00 0.36 0.36 76 1020.4
20260502170508 16 0.0 0.0 0.00 0.36 0.36 88 1020.2
20260502163958 16 0.0 0.0 0.00 0.36 0.36 90 1020.5
20260502163457 16 0.0 0.0 0.00 0.36 0.36 90 1020.5
20260502162955 16 0.0 0.0 0.00 0.36 0.36 90 1020.5
20260502162453 16 0.0 0.0 0.00 0.36 0.36 92 1020.4
20260502161952 16 0.0 0.0 0.00 0.36 0.36 92 1020.7
20260502161450 16 0.0 0.0 0.00 0.36 0.36 93 1020.6
20260502160948 16 0.0 0.0 0.00 0.36 0.36 93 1020.7
20260502160447 16 0.0 0.0 0.00 0.36 0.36 93 1020.9
20260502151931 15 0.0 0.0 0.05 0.36 0.36 95 1022.4
20260502151429 15 0.0 0.0 0.05 0.36 0.36 95 1022.6
20260502150927 15 0.0 0.0 0.05 0.36 0.36 94 1022.6
20260502150425 15 0.0 0.0 0.05 0.36 0.36 94 1022.8
20260502130342 19 0.0 0.0 0.03 0.03 0.03 90 1023.3
20260502123330 20 0.0 0.0 0.03 0.03 0.03 86 1022.6
20260502122828 20 0.0 0.0 0.00 0.00 0.00 86 1022.6
20260502122326 20 0.0 0.0 0.00 0.00 0.00 85 1022.6
20260502121824 20 0.0 0.0 0.00 0.00 0.00 84 1022.5
20260502121321 20 0.0 0.0 0.00 0.00 0.00 84 1022.4
20260502120819 20 0.0 0.0 0.00 0.00 0.00 85 1022.3
20260502120317 20 0.0 0.0 0.00 0.00 0.00 85 1022.2
20260502115815 20 0.0 0.0 0.00 0.00 0.00 84 1022.2
20260502115314 20 0.0 0.0 0.00 0.00 0.00 86 1022.1
20260502114812 20 0.0 0.0 0.00 0.00 0.00 86 1022.0
20260502114310 20 0.0 0.0 0.00 0.00 0.00 91 1021.8
20260502113808 18 0.0 0.0 0.00 0.00 0.00 95 1021.7
20260502113306 17 0.0 0.0 0.00 0.00 0.00 97 1021.6
20260502112805 17 0.0 0.0 0.00 0.00 0.00 98 1021.6
20260502112305 17 0.0 0.0 0.00 0.00 0.00 98 1021.5
20260502111801 17 0.0 0.0 0.00 0.00 0.00 99 1021.4
20260502111300 16 0.0 0.0 0.00 0.00 0.00 99 1021.3
20260502110758 16 0.0 0.0 0.00 0.00 0.00 99 1021.1
20260502110256 16 0.0 0.0 0.00 0.00 0.00 99 1020.9
20260502105755 16 0.0 0.0 0.00 0.00 0.00 99 1020.9
20260502105253 15 0.0 0.0 0.00 0.00 0.00 99 1020.8
20260502104751 15 0.0 0.0 0.00 0.00 0.00 99 1020.7
20260502104250 15 0.0 0.0 0.00 0.00 0.00 99 1020.6
20260502103748 15 0.0 0.0 0.00 0.00 0.00 99 1020.5
20260502103246 15 0.0 0.0 0.00 0.00 0.00 99 1020.3
20260502102745 14 0.0 0.0 0.00 0.00 0.00 99 1020.3
20260502102243 14 0.0 0.0 0.00 0.00 0.00 99 1020.2
20260502101741 14 0.0 0.0 0.00 0.00 0.00 99 1020.1
20260502101240 14 0.0 0.0 0.00 0.00 0.00 99 1020.1
20260502100738 14 0.0 0.0 0.00 0.00 0.00 99 1020.0
20260502100237 14 0.0 0.0 0.00 0.00 0.00 99 1019.9
20260502091220 13 0.0 0.0 0.00 0.00 0.00 99 1019.2
20260502090719 13 0.0 0.0 0.00 0.00 0.00 99 1019.1
20260502090218 13 0.0 0.0 0.00 0.00 0.00 99 1019.1
20260502071142 13 0.0 0.0 0.00 0.00 0.00 99 1018.6
20260502070640 13 0.0 0.0 0.00 0.00 0.00 99 1018.5
20260502070139 13 0.0 0.0 0.00 0.00 0.00 99 1018.5
20260502065637 13 0.0 0.0 0.00 0.00 0.00 99 1018.6
20260502065136 13 0.0 0.0 0.00 0.00 0.00 99 1018.7
20260502064634 13 0.0 0.0 0.00 0.00 0.00 99 1018.7
20260502064133 13 0.0 0.0 0.00 0.00 0.00 99 1018.7
20260502063631 14 0.0 0.0 0.00 0.00 0.00 99 1018.8
20260502063129 14 0.0 0.0 0.00 0.00 0.00 99 1018.9
20260502062628 14 0.0 0.0 0.00 0.00 0.00 99 1018.9
20260502062127 14 0.0 0.0 0.00 0.00 0.00 99 1018.8
20260502061626 14 0.0 0.0 0.00 0.00 0.00 99 1018.6
20260502061124 14 0.0 0.0 0.00 0.00 0.00 99 1018.6
20260502060623 14 0.0 0.0 0.00 0.00 0.00 99 1018.6
20260502060121 14 0.0 0.0 0.00 0.00 0.00 99 1018.6
20260502055620 14 0.0 0.0 0.00 0.00 0.00 99 1018.6
20260502055118 14 0.0 0.0 0.00 0.00 0.00 99 1018.5
20260502054616 14 0.0 0.0 0.00 0.00 0.00 99 1018.6
20260502054115 14 0.0 0.0 0.00 0.00 0.00 99 1018.7
20260502053613 14 0.0 0.0 0.00 0.00 0.00 99 1018.6
20260502053111 14 0.0 0.0 0.00 0.00 0.00 99 1018.7
20260502052609 14 0.0 0.0 0.00 0.00 0.00 99 1018.8
20260502052108 14 0.0 0.0 0.00 0.00 0.00 99 1018.9
20260502051607 14 0.0 0.0 0.00 0.00 0.00 99 1019.0
20260502051105 14 0.0 0.0 0.00 0.00 0.00 99 1019.1
20260502050603 14 0.0 0.0 0.00 0.00 0.00 99 1019.2
20260502050101 14 0.0 0.0 0.00 0.00 0.00 99 1019.2
20260502045600 14 0.0 0.0 0.00 0.00 0.00 99 1019.3
20260502045058 15 0.0 0.0 0.00 0.00 0.00 99 1019.3
20260502044556 15 0.0 0.0 0.00 0.00 0.00 99 1019.4
20260502044055 15 0.0 0.0 0.00 0.00 0.00 99 1019.5
20260502043553 15 0.0 0.0 0.00 0.00 0.00 99 1019.6
20260502043052 15 0.0 0.0 0.00 0.00 0.00 99 1019.6
20260502042550 15 0.0 0.0 0.00 0.00 0.00 99 1019.6
20260502042048 15 0.0 0.0 0.00 0.00 0.00 99 1019.5
20260502041546 15 0.0 0.0 0.00 0.00 0.00 99 1019.4
20260502041044 15 0.0 0.0 0.00 0.00 0.00 99 1019.4
20260502040543 15 0.0 0.0 0.00 0.00 0.00 99 1019.4
20260502040041 15 0.0 0.0 0.00 0.00 0.00 99 1019.3
20260502035540 15 0.0 0.0 0.00 0.00 0.00 99 1019.4
20260502035038 15 0.0 0.0 0.00 0.00 0.00 99 1019.3
20260502034536 15 0.0 0.0 0.00 0.00 0.00 99 1019.4
20260502034035 15 0.0 0.0 0.00 0.00 0.00 99 1019.4
20260502033533 16 0.0 0.0 0.00 0.00 0.00 99 1019.3
20260502033031 16 0.0 0.0 0.00 0.00 0.00 99 1019.4